User: anonymous   Login
Location: Young's Pond
(41.2695°N, 72.7766°W)
Time: 13:11:46
(UTC-05:00)
Language:

CZ-4B R/B - Orbit

View from above orbital plane
View from above orbital plane
View from above satellite
View from above satellite

Ground track
Ground track

The orbit data is extracted from the following two-line orbital elements,

1 29093U 06015B   15028.23708834  .00011021  00000-0  35847-3 0  5054
2 29093 097.5028 113.9296 0083384 187.7370 230.6612 15.28679774483906
Epoch (UTC): 28 January 2015 05:41:24
Eccentricity: 0.0083384
inclination: 97.5028°
perigee height: 422 km
apogee height: 537 km
right ascension of ascending node: 113.9296°
argument of perigee: 187.7370°
revolutions per day: 15.28679774
mean anomaly at epoch: 230.6612°
orbit number at epoch: 48390

The dashed part of the orbit path shows where the satellite is in the earth's shadow,  

DLR